ONEWEB-0052, 45156

Orbit data source: Space-Track

ONEWEB-0052, 45156 is a payload satellite owned by One Web (UK) in LEO that was launched on Thu, 06 Feb 2020 UTC via a SOYUZ-2-1B launch vehicle from the Tyuratam Missile And Space Complex (TTMTR). Payload-class satellites include a variety of spacecraft equipped with specific instruments for various scientific and technological missions. These include communications satellites like Starlink; space stations such as the ISS; scientific satellites like the Hubble; Earth observation satellites from companies like Planet Labs, Umbra, and HawkEye 360; GPS; miniature CubeSats for education and research; and military/defense satellites.

Loading next visibility...
Identifier
45156, 2020-008AB
Orbit
LEO
Last TLE update
14 hours ago
Origin
Manufacturer
One Web
Mission
Operational Commercial Communications
Bus & Motor
ARROW, Unknown motor
Mass
148 kg wet, ~140 kg dry
Launch date (UTC)
2020-02-06 (5 years ago)
Launch vehicle
SOYUZ-2-1B
Launch site
Tyuratam Missile And Space Complex (TTMTR)
Object type
Payload
Rocket body
Debris
Shape & HBR
Trap Box + 2 Pan, 5 m
Radar Cross Section
2.957 m², Large (>1 m²)

Expand to show TLE details & history

TLE from 14 hours ago
0 ONEWEB-0052
1 45156U 20008AB  25181.82077728 -.00000619  00000-0 -18108-2 0  9997
2 45156  87.8829 106.3012 0001512  66.1124 294.0161 13.10373237261920
Epoch: 2025-06-30T19:41Z
TLE epoch observation values (Epoch: 2025-06-30T19:41:55.156Z)
Latitude
-0.00011°
Longitude
-108.30371°
Altitude
1,224.135 km
Speed
7.243 km/s
True Right ascension
07h 05m 12s
True Declination
0° 00' 00"
Sunlit
Object was in daylight at epoch
Visualization orbit readout
Latitude
-74.09683°
Longitude
78.99644°
Altitude
1,250.029 km
Speed
7.229 km/s
Apparent Right ascension
10h 39m 35s
Apparent Declination
-74° 15' 05"
Sunlit
Object is in full shadow
Visualization observer readout
Local Sidereal Time
21:27:31
Azimuth
188.34° SSW
Elevation
-54.641°
Doppler factor
1
Orbital elements
Apogee altitude
1,219.984 km
Perigee altitude
1,217.687 km
Semi-major axis
7,596.972 km
Eccentricity
0.00015
Inclination
87.8829°
RAAN
106.3012°
Arg. of periapsis
66.1124°
True anomaly
Unknown
Mean anomaly
294.0161°
Eccentric anomaly
Unknown
Mean motion
3.2778 °/min
Orbital period
109.83 mins
BSTAR
-0.0018108
Loading maneuver chart data...
Loading SW <> Apogee altitude chart data...
Loading historical data...
Loading historical data...
Loading historical data...
Loading historical data...
Loading historical data...
Loading historical data...
Loading historical data...

ONEWEB-0052 Visibility forecast

Observer location: undefined°, undefined°

Span
Click to sort rows by Start time (UTC) header in descending order
Start Az.
Max El. time (UTC)
Max El. Az.
Max El.
End time (UTC)
End Az.
8 mins2025-07-01 17:50:10.744Z110.717° ESE2025-07-01 17:54:10.744Z75.567° E17.85°2025-07-01 17:58:10.744Z39.003° NE
13 mins2025-07-01 19:37:10.744Z186.52° SSW2025-07-01 19:43:10.744Z246.66° WSW43.947°2025-07-01 19:50:10.744Z356.827° N
6 mins2025-07-02 05:20:10.744Z48.746° ENE2025-07-02 05:23:10.744Z75.016° E14.149°2025-07-02 05:26:10.744Z100.204° ESE
12 mins2025-07-02 07:08:10.744Z0.131° NNE2025-07-02 07:14:10.744Z169.328° S44.723°2025-07-02 07:20:10.744Z180.626° SSW
6 mins2025-07-02 09:00:10.744Z310.901° NW2025-07-02 09:03:10.744Z284.062° WNW14.865°2025-07-02 09:06:10.744Z258.813° W
|